{"data":{"norad_id":38767,"intl_designator":"2012-048K","name":"AEROCUBE 4.5A","alt_names":[],"object_type":"PAYLOAD","status":"ACTIVE","operator":null,"country":"US","launch_date":"2012-09-13","launch_site_code":"AFWTR","launch_vehicle":null,"mission":null,"orbit_class":"UNKNOWN","rcs_meters":null,"size_class":null,"mass_kg":null,"dimensions":null,"purposes":["tech_demo"],"wikipedia_slug":null,"has_3d_model":false,"image_url":null,"decayed_at":null,"tle_current":{"epoch":"2026-07-01T08:34:52.859136Z","epoch_age_seconds":7029029,"freshness":"OLD","line1":"1 38767U 12048K   26182.35755624  .04452536  75888-5  12090-2 0  9996","line2":"2 38767  64.6119 334.1912 0018036 274.2275  85.6841 16.27240800374938","mean_motion":16.272408,"eccentricity":0.0018036,"inclination_deg":64.6119,"raan_deg":334.1912,"arg_perigee_deg":274.2275,"mean_anomaly_deg":85.6841,"bstar":0.001209,"rev_number":37493,"period_min":88.493356361271,"perigee_km":188.10105882523,"apogee_km":211.829589529,"semimajor_km":6578.1023241771,"source":"CELESTRAK","updated_at":"2026-07-08T09:01:01.241588Z"}}}